#timestamp,LO_Frequency,Hit,StdDev 
1599080695.1,286047016.6,P
1599080696.0,286047016.6,P
1599080715.8,286047016.2,P
1599080735.6,286047015.7,Y
1599080755.5,286047000.5,P
1599080775.3,286047002.8,N
1599080795.1,286047002.0,N
1599080815.9,286046999.7,N
1599080835.7,286047001.5,N
1599080855.6,286047001.4,N
1599080875.4,286047004.4,N
1599080895.2,286047001.6,N
1599080915.1,286047004.2,N
1599080916.0,286047004.2,N
1599080935.8,286047003.9,N
1599080955.7,286047004.1,N
1599080975.5,286047003.5,N
1599080995.3,286047001.4,N
1599081015.2,286047004.1,N
1599081035.0,286047003.1,N
1599081035.9,286047003.1,N
1599081055.7,286047003.6,N
1599081075.6,286047003.0,N
1599081095.4,286047003.0,N
1599081115.3,286047005.4,N
1599081135.1,286047005.2,N
1599081136.0,286047005.2,N
1599081155.8,286047005.5,N
1599081175.7,286047004.9,N
1599081195.5,286047005.6,N
1599081215.3,286047004.6,N
1599081235.2,286047004.6,N
1599081255.0,286047007.4,N
1599081255.9,286047007.4,N
1599081275.8,286047006.7,Y
1599081295.6,286047004.0,P
1599081315.4,286047003.2,P
1599081335.3,286047003.2,P
1599081355.1,286047003.1,Y
1599081375.9,286046998.2,P
1599081395.7,286047000.7,N
1599081415.5,286047001.1,N
1599081435.4,286047001.0,N
1599081455.2,286047001.1,N
1599081475.0,286047001.1,N
1599081475.9,286047001.1,N
1599081495.8,286046998.3,N
1599081515.6,286046999.1,N
1599081535.5,286047000.5,N
1599081555.3,286047000.6,N
1599081575.1,286047000.6,N
1599081595.9,286047000.9,N
1599081615.7,286047000.2,N
1599081635.5,286047002.8,N
1599081655.4,286047000.1,N
1599081675.2,286047002.3,N
1599081695.1,286047002.2,N
1599081696.0,286047002.2,N
1599081715.8,286047002.1,N
1599081735.6,286047001.3,N
1599081755.5,286047001.8,N
1599081775.3,286047002.5,N
1599081795.1,286047001.4,N
1599081815.9,286047001.9,N
1599081835.7,286047001.5,N
1599081855.6,286047001.9,N
1599081875.4,286047004.3,Y
1599081895.2,286047002.4,P
1599081915.1,286046999.7,N
1599081916.0,286046999.7,N
1599081935.8,286046999.7,N
1599081955.6,286047000.5,N
1599081975.5,286046999.8,N
1599081995.3,286047002.7,N
1599082015.2,286047002.1,N
1599082035.9,286047002.6,N
1599082055.7,286047001.8,N
1599082075.6,286047001.9,N
1599082095.4,286047001.5,N
1599082115.2,286047003.8,Y
1599082135.1,286047000.0,P
1599082136.0,286047000.0,N
1599082155.8,286046999.8,N
1599082175.7,286047002.8,Y
1599082195.5,286047003.8,P
1599082215.3,286047001.6,N
1599082235.2,286047002.1,N
1599082255.0,286047001.0,N
1599082255.9,286047001.0,N
1599082275.7,286047002.7,N
1599082295.6,286047002.0,N
1599082315.4,286047001.4,N
1599082335.3,286047011.9,Y
1599082355.1,286047002.2,P
1599082356.0,286047002.2,P
1599082375.8,286046999.9,N
1599082395.7,286047002.7,N
1599082415.5,286047002.8,N
1599082435.3,286047000.0,N
1599082455.2,286047002.8,N
1599082475.0,286047004.2,Y
1599082475.9,286047004.2,P
1599082495.8,286047000.4,N
1599082515.6,286047000.0,N
1599082535.4,286047000.2,N
1599082555.3,286046999.7,N
1599082575.1,286047000.6,N
1599082595.8,286047000.6,N
1599082615.7,286047000.8,N
1599082635.5,286047000.0,N
1599082655.4,286047002.8,N
1599082675.2,286047002.3,N
1599082695.0,286047002.4,N
1599082695.9,286047002.4,N
1599082715.8,286047000.1,N
1599082735.6,286047000.4,N
1599082755.4,286047000.6,N
1599082775.3,286046999.8,N
1599082795.1,286047001.6,N
1599082815.9,286047001.7,N
1599082835.7,286047001.7,N
1599082855.5,286047003.0,N
1599082875.4,286047002.9,N
1599082895.2,286047003.6,N
1599082915.0,286047003.5,N
1599082915.9,286047003.5,N
1599082935.8,286047003.2,N
1599082955.6,286047003.4,N
1599082975.5,286047004.1,N
1599082995.3,286047003.9,N
1599083015.1,286047001.4,N
1599083035.9,286047003.7,N
1599083055.7,286047003.1,N
1599083075.5,286047003.8,N
1599083095.4,286047003.7,N
1599083115.2,286047003.3,N
1599083135.1,286047004.0,N
1599083136.0,286047004.0,N
1599083155.8,286047004.1,Y
1599083175.6,286047002.2,P
1599083195.5,286047001.9,P
1599083215.3,286047004.3,P
1599083235.1,286047001.8,N
1599083255.9,286047004.1,Y
1599083275.7,286047002.2,P
1599083295.6,286047000.2,N
1599083315.4,286047000.2,N
1599083335.2,286046999.7,N
1599083355.1,286047002.1,N
1599083356.0,286047002.1,N
1599083375